EW2219 Weather Reports


Display with metric or nautical units.
time (UTC)temp
F
wind
direction
speed
MPH
gust
MPH
rain 1hr
in
rain 24hr
in
rain mn
in
humidity
%
barometer
mb
20260510032417 46 231 0.0 0.0 0.00 0.00 0.00 100 1005.1
20260510030917 47 231 0.0 0.0 0.00 0.00 0.00 100 1005.0
20260510025417 47 206 2.0 2.0 0.00 0.00 0.00 100 1005.0
20260510022417 48 207 2.0 4.0 0.00 0.00 0.00 100 1004.9
20260510015417 48 189 2.0 4.0 0.00 0.00 0.00 100 1004.6
20260510013917 49 228 4.0 5.0 0.00 0.00 0.00 100 1004.3
20260510012417 49 221 3.0 5.0 0.00 0.00 0.00 100 1004.2
20260510002417 51 222 5.0 8.0 0.00 0.00 0.00 100 1003.2
20260510000917 51 227 1.0 3.0 0.00 0.00 0.00 100 1002.8
20260509235417 51 225 5.0 8.0 0.00 0.00 0.00 100 1002.9
20260509233917 51 221 5.0 8.0 0.00 0.00 0.00 100 1002.3
20260509230917 49 247 3.0 6.0 0.00 0.00 0.00 100 1002.7
20260509225418 49 248 6.0 11.0 0.00 0.00 0.00 100 1004.2
20260509223917 50 283 7.0 9.0 0.00 0.00 0.00 100 1004.2
20260509222417 55 278 20.0 27.0 0.00 0.00 0.00 100 1004.8
20260509220918 59 256 3.0 4.0 0.00 0.00 0.00 96 1002.4
20260509215417 59 253 2.0 4.0 0.00 0.00 0.00 91 1002.0
20260509213917 60 173 4.0 6.0 0.00 0.00 0.00 93 1002.1
20260509212417 60 184 2.0 1.0 0.00 0.00 0.00 95 1001.7
20260509205417 60 212 5.0 9.0 0.00 0.00 0.00 88 1002.2
20260509203917 61 210 5.0 8.0 0.00 0.00 0.00 87 1002.3
20260509202417 60 222 5.0 9.0 0.00 0.00 0.00 88 1002.6
20260509200917 62 225 5.0 8.0 0.00 0.00 0.00 84 1003.1
20260509195417 62 242 5.0 7.0 0.00 0.00 0.00 85 1003.2
20260509192417 63 211 7.0 12.0 0.00 0.00 0.00 81 1003.3
20260509190917 63 248 6.0 10.0 0.00 0.00 0.00 86 1003.4
20260509183917 63 235 10.0 14.0 0.00 0.00 0.00 76 1003.8
20260509182417 64 248 10.0 12.0 0.00 0.00 0.00 81 1003.6
20260509175417 62 259 5.0 8.0 0.00 0.00 0.00 88 1004.1
20260509173917 61 259 7.0 14.0 0.00 0.00 0.00 88 1004.2
20260509172417 61 208 10.0 16.0 0.00 0.00 0.00 86 1004.5
20260509165417 62 216 11.0 15.0 0.00 0.00 0.00 83 1004.7
20260509163917 62 203 12.0 16.0 0.00 0.00 0.00 85 1004.8
20260509160917 62 216 3.0 5.0 0.00 0.00 0.00 85 1005.1
20260509153917 61 219 9.0 16.0 0.00 0.00 0.00 94 1005.4
20260509150917 58 204 8.0 12.0 0.00 0.00 0.00 98 1005.3
20260509145417 59 198 5.0 11.0 0.00 0.00 0.00 100 1005.2
20260509143917 58 131 4.0 6.0 0.00 0.00 0.00 99 1005.4
20260509142417 57 213 6.0 10.0 0.00 0.00 0.00 100 1005.3
20260509140916 57 219 4.0 6.0 0.00 0.00 0.00 100 1005.4
20260509135417 56 86 2.0 4.0 0.00 0.00 0.00 100 1005.5
20260509132417 54 254 2.0 3.0 0.00 0.00 0.00 100 1005.7
20260509130917 53 236 2.0 5.0 0.00 0.00 0.00 100 1005.7
20260509125417 53 232 4.0 5.0 0.00 0.00 0.00 100 1005.7
20260509123917 52 220 3.0 6.0 0.00 0.00 0.00 100 1005.6
20260509122417 51 219 3.0 5.0 0.00 0.00 0.00 100 1005.6
20260509120917 49 194 7.0 10.0 0.00 0.00 0.00 100 1005.8
20260509115416 48 220 0.0 0.0 0.00 0.00 0.00 100 1005.5
20260509113917 46 227 2.0 3.0 0.00 0.00 0.00 100 1005.4
20260509112416 45 254 2.0 3.0 0.00 0.00 0.00 100 1005.3
20260509110917 45 230 2.0 4.0 0.00 0.00 0.00 100 1005.3
20260509105417 44 107 0.0 0.0 0.00 0.00 0.00 100 1005.3
20260509103917 44 253 0.0 0.0 0.00 0.00 0.00 100 1005.5
20260509102417 44 220 0.0 0.0 0.00 0.00 0.00 100 1005.4
20260509100917 43 213 0.0 4.0 0.00 0.00 0.00 100 1005.5
20260509095417 43 196 0.0 0.0 0.00 0.00 0.00 100 1005.4
20260509093916 43 196 0.0 0.0 0.00 0.00 0.00 100 1005.7
20260509092416 43 215 1.0 3.0 0.00 0.00 0.00 100 1005.9
20260509090916 43 213 3.0 4.0 0.00 0.00 0.00 100 1005.8
20260509085416 43 244 2.0 2.0 0.00 0.00 0.00 100 1005.9
20260509083917 42 218 2.0 2.0 0.00 0.00 0.00 100 1005.9
20260509082416 42 238 1.0 2.0 0.00 0.00 0.00 100 1005.8
20260509080916 42 224 1.0 2.0 0.00 0.00 0.00 100 1005.8
20260509075417 42 215 0.0 1.0 0.00 0.00 0.00 100 1005.7
20260509072417 40 206 0.0 1.0 0.00 0.00 0.00 100 1005.9
20260509070917 40 212 0.0 0.0 0.00 0.00 0.00 100 1006.0
20260509065416 40 193 0.0 0.0 0.00 0.00 0.00 100 1006.2
20260509063916 40 220 0.0 0.0 0.00 0.00 0.00 100 1006.4
20260509060917 40 215 0.0 2.0 0.00 0.00 0.00 97 1006.8
20260509053916 41 227 0.0 0.0 0.00 0.00 0.00 93 1007.2
20260509052416 42 228 0.0 1.0 0.00 0.00 0.00 92 1007.5
20260509050917 42 221 1.0 2.0 0.00 0.00 0.00 93 1007.5
20260509045416 42 245 2.0 2.0 0.00 0.00 0.00 93 1007.6
20260509043916 42 242 1.0 2.0 0.00 0.00 0.00 92 1007.8
20260509042416 42 201 1.0 2.0 0.00 0.00 0.00 94 1007.8
20260509035417 41 220 2.0 4.0 0.00 0.00 0.00 97 1007.9
20260509033916 41 218 2.0 4.0 0.00 0.00 0.00 96 1008.1